ZSLRI EDHI-EDHI

Flight info

Callsign ZSLRI
Flight time N/A
Altitude 1500
Route DCT
Aircraft C206/L-SDF/C

Departure

Time 2026-04-22 13:57
Airport Hamburg-Finkenwerder Airport (EDHI)

Arrival

Time N/A
Airport Hamburg-Finkenwerder Airport (EDHI)
Time Latitude Longitude Altitude Speed Heading
2026-04-22 13:38 53.53267 9.83539 19 ft 0 kts 353°
2026-04-22 13:41 53.53268 9.83536 19 ft 3 kts 283°
2026-04-22 13:41 53.53260 9.83536 19 ft 0 kts 171°
2026-04-22 13:43 53.53259 9.83536 19 ft 2 kts 169°
2026-04-22 13:43 53.53236 9.83540 19 ft 4 kts 181°
2026-04-22 13:44 53.53227 9.83536 19 ft 5 kts 203°
2026-04-22 13:44 53.53225 9.83490 19 ft 3 kts 294°
2026-04-22 13:44 53.53236 9.83448 19 ft 8 kts 299°
2026-04-22 13:44 53.53261 9.83376 19 ft 5 kts 308°
2026-04-22 13:45 53.53265 9.83361 19 ft 0 kts 264°
2026-04-22 13:45 53.53265 9.83359 19 ft 0 kts 272°
2026-04-22 13:45 53.53275 9.83310 19 ft 0 kts 294°
2026-04-22 13:50 53.53267 9.83539 19 ft 0 kts 353°
2026-04-22 13:51 53.53256 9.83530 19 ft 0 kts 191°
2026-04-22 13:53 53.53246 9.83536 19 ft 6 kts 151°
2026-04-22 13:53 53.53241 9.83430 19 ft 21 kts 294°
2026-04-22 13:53 53.53280 9.83419 19 ft 7 kts 24°
2026-04-22 13:54 53.53326 9.83411 19 ft 0 kts 347°
2026-04-22 13:54 53.53348 9.83404 19 ft 10 kts 347°
2026-04-22 13:54 53.53407 9.83285 19 ft 3 kts 224°
2026-04-22 13:55 53.53406 9.83284 19 ft 0 kts 228°
2026-04-22 13:56 53.53382 9.83237 19 ft 26 kts 229°
2026-04-22 13:56 53.53128 9.82708 17 ft 88 kts 230°
2026-04-22 13:56 53.52699 9.81741 287 ft 101 kts 237°
2026-04-22 13:57 53.52324 9.80793 754 ft 95 kts 239°
2026-04-22 13:57 53.51922 9.80018 1122 ft 85 kts 198°
2026-04-22 13:57 53.51291 9.80098 1246 ft 104 kts 150°
2026-04-22 13:57 53.50727 9.80862 1455 ft 107 kts 139°
2026-04-22 13:58 53.50213 9.81752 1664 ft 109 kts 118°
2026-04-22 13:58 53.50152 9.82973 1780 ft 113 kts 75°
2026-04-22 13:58 53.50454 9.84169 1775 ft 114 kts 56°